GW4193 Weather Reports


Display with metric or nautical units.
time (UTC)temp
F
wind
direction
speed
MPH
gust
MPH
rain 1hr
in
rain 24hr
in
rain mn
in
humidity
%
barometer
mb
20260503050005 39 55 0.0 0.0 0.00 0.00 0.00 71 1018.7
20260503044506 40 55 0.0 0.0 0.00 0.00 0.00 71 1018.7
20260503043016 40 55 0.0 0.0 0.00 0.00 0.00 70 1018.6
20260503041532 41 55 0.0 2.0 0.00 0.00 0.00 67 1018.4
20260503040023 42 55 0.0 0.0 0.00 0.00 0.00 66 1018.3
20260503034506 42 55 0.0 0.0 0.00 0.00 0.00 65 1018.2
20260503033010 43 55 0.0 0.0 0.00 0.00 0.00 63 1018.1
20260503031514 44 55 0.0 2.0 0.00 0.00 0.00 62 1018.2
20260503030024 44 55 0.0 2.0 0.00 0.00 0.00 60 1018.1
20260503024525 44 46 1.0 2.0 0.00 0.00 0.00 62 1018.0
20260503023011 44 56 0.0 3.0 0.00 0.00 0.00 60 1017.8
20260503021512 45 49 0.0 2.0 0.00 0.00 0.00 61 1017.7
20260503020016 45 49 0.0 2.0 0.00 0.00 0.00 60 1017.3
20260503014520 46 18 0.0 2.0 0.00 0.00 0.00 64 1017.2
20260503013033 47 325 0.0 0.0 0.00 0.00 0.00 57 1017.0
20260503011510 47 325 0.0 0.0 0.00 0.00 0.00 56 1016.8
20260503010015 48 325 0.0 0.0 0.00 0.00 0.00 54 1016.8
20260503004515 49 325 0.0 1.0 0.00 0.00 0.00 53 1016.7
20260503003027 49 325 0.0 1.0 0.00 0.00 0.00 53 1016.6
20260503001524 50 35 0.0 2.0 0.00 0.00 0.00 53 1016.5
20260503000011 50 353 0.0 3.0 0.00 0.00 0.00 53 1016.3
20260502234518 50 287 1.0 4.0 0.00 0.00 0.00 51 1016.2
20260502233018 51 321 0.0 3.0 0.00 0.00 0.00 51 1016.3
20260502231527 51 267 0.0 4.0 0.00 0.00 0.00 50 1016.1
20260502230024 51 259 1.0 4.0 0.00 0.00 0.00 48 1016.1
20260502224513 52 225 0.0 5.0 0.00 0.00 0.00 48 1016.1
20260502223018 52 233 1.0 6.0 0.00 0.00 0.00 47 1016.1
20260502221519 52 27 1.0 4.0 0.00 0.00 0.00 48 1016.1
20260502220026 53 305 2.0 6.0 0.00 0.00 0.00 45 1015.8
20260502214525 52 331 1.0 7.0 0.00 0.00 0.00 46 1015.8
20260502213032 52 329 1.0 6.0 0.00 0.00 0.00 47 1015.8
20260502211522 53 280 1.0 4.0 0.00 0.00 0.00 47 1015.7
20260502210005 53 328 3.0 7.0 0.00 0.00 0.00 45 1015.6
20260502204507 53 22 1.0 5.0 0.00 0.00 0.00 42 1015.7
20260502203012 54 32 2.0 7.0 0.00 0.00 0.00 46 1015.7
20260502201527 54 65 1.0 2.0 0.00 0.00 0.00 45 1015.8
20260502200003 54 113 0.0 4.0 0.00 0.00 0.00 42 1015.9
20260502194504 54 358 0.0 6.0 0.00 0.00 0.00 42 1015.9
20260502193008 54 46 2.0 5.0 0.00 0.00 0.00 48 1016.2
20260502191515 52 264 1.0 10.0 0.00 0.00 0.00 48 1016.2
20260502190028 53 212 3.0 7.0 0.00 0.00 0.00 44 1016.3
20260502184509 54 41 1.0 4.0 0.00 0.00 0.00 46 1016.5
20260502183007 53 221 1.0 5.0 0.00 0.00 0.00 45 1016.5
20260502181510 55 51 1.0 5.0 0.00 0.00 0.00 44 1016.5
20260502163022 53 48 0.0 4.0 0.00 0.00 0.00 49 1017.2
20260502161506 53 300 1.0 5.0 0.00 0.00 0.00 49 1017.3
20260502151524 51 56 2.0 4.0 0.00 0.00 0.00 61 1017.3
20260502123012 41 38 0.0 2.0 0.00 0.00 0.00 93 1017.3
20260502121520 39 38 0.0 0.0 0.00 0.00 0.00 93 1017.2
20260502114506 36 38 0.0 0.0 0.00 0.00 0.00 93 1017.1
20260502113010 35 38 0.0 2.0 0.00 0.00 0.00 92 1017.1
20260502111514 35 38 0.0 2.0 0.00 0.00 0.00 92 1016.9
20260502110021 35 38 0.0 0.0 0.00 0.00 0.00 92 1016.7
20260502104503 35 38 0.0 0.0 0.00 0.00 0.00 92 1016.6
20260502103014 35 38 0.0 0.0 0.00 0.00 0.00 92 1016.5
20260502101512 35 38 0.0 0.0 0.00 0.00 0.00 92 1016.5
20260502091516 36 38 0.0 0.0 0.00 0.00 0.00 91 1017.1
20260502071526 38 38 0.0 0.0 0.00 0.00 0.00 88 1016.7
20260502070012 39 38 0.0 0.0 0.00 0.00 0.00 87 1016.5
20260502064517 39 38 0.0 0.0 0.00 0.00 0.00 87 1016.7
20260502063026 39 38 0.0 0.0 0.00 0.00 0.00 87 1016.7
20260502061523 39 38 0.0 0.0 0.00 0.00 0.00 87 1016.8
20260502060036 40 38 0.0 0.0 0.00 0.00 0.00 85 1017.1
20260502054519 41 38 0.0 0.0 0.00 0.00 0.00 84 1017.4
20260502053017 41 38 0.0 0.0 0.00 0.00 0.00 82 1017.3
20260502051519 42 38 0.0 0.0 0.00 0.00 0.00 79 1017.3